Location: Sternwarte_Laufen
(47.9344°N, 12.9346°E)
Time: 03:24:01
(UTC+02:00)

ISS - Pass Details

Date: 12 July 2025
Orbit: 413 x 417 km, 51.6° (Epoch: 12 July)

Event Time Altitude Azimuth Distance (km) Brightness Sun altitude
Rises 22:45:19 0° 267° (W) 2,349 0.5 -12.7°
Reaches altitude 10° 22:47:27 10° 273° (W) 1,489 -0.4 -12.9°
Maximum altitude 22:50:43 49° 349° (N) 548 -2.8 -13.2°
Drops below altitude 10° 22:53:59 10° 66° (ENE) 1,493 -1.1 -13.5°
Sets 22:56:07 0° 72° (ENE) 2,358 -0.1 -13.7°
